[[{"header":{"parameterUnit":"m.s-1","parameterCategory":1,"la1":30.2991,"la2":30.254,"lo1":-89.0895,"lo2":-89.0444,"dy":0.0017,"dx":0.0017,"nx":28,"ny":28,"refTime":"2023-10-20T09:00:00:Z","depth":0,"parameterNumber":2,"parameterNumberName":"U-component_of_WINDS"},"data":[0,0,0,0,0,0,0,0,0,0,0,0,0,0,0,0,0,0,0,0,0,0,0,0,0,0,0,0,0,0,0,0,0,0,0,0,0,0,0,0,0,0,0,0,0,0,0,0,0,0,0,0,0,0,0,0,0,0,-0.4737,-0.4736,0,-0.4665,-0.4664,-0.4663,-0.4588,-0.4587,-0.4586,-0.4585,-0.4511,-0.451,-0.4509,0,0,0,0,0,0,0,0,0,0,0,0,0,-0.4811,-0.481,-0.4737,-0.4736,-0.4735,-0.4665,-0.4664,-0.4663,-0.4589,-0.4587,-0.4586,-0.4585,-0.4512,-0.4511,-0.4509,0,0,0,0,0,0,0,0,0,0,0,0,0,-0.4763,-0.4809,-0.4737,-0.469,-0.4685,-0.4665,-0.4664,-0.4663,-0.4589,-0.4587,-0.4586,-0.4584,-0.4512,-0.4511,-0.4509,-0.4531,0,0,-0.4505,-0.4504,0,0,0,0,0,0,0,0,-0.4766,-0.476,-0.4697,-0.4693,-0.4687,-0.4634,-0.4663,-0.4618,-0.4589,-0.4625,-0.4585,-0.4584,-0.4553,-0.4548,-0.4538,-0.4527,-0.4524,-0.4504,-0.4503,-0.4503,-0.4502,0,0,0,0,0,0,0,-0.4769,-0.4763,-0.4708,-0.4697,-0.469,-0.4672,-0.4664,-0.4654,-0.4599,-0.4622,-0.4616,-0.4609,-0.455,-0.454,-0.4536,-0.4523,-0.4504,-0.4503,-0.4502,-0.4502,-0.4526,-0.4528,0,0,0,0,0,0,-0.4779,-0.4766,-0.4711,-0.4706,-0.4723,-0.4672,-0.4662,-0.4653,-0.4599,-0.4589,-0.461,-0.4606,-0.4543,-0.4538,-0.4533,-0.4554,-0.4503,-0.4501,-0.4501,-0.4525,-0.4527,-0.4528,0,0,0,0,0,0,-0.4781,-0.4775,-0.4714,-0.4735,-0.4725,-0.4672,-0.4662,-0.4652,-0.4641,-0.459,-0.458,-0.461,-0.4542,-0.4535,-0.4532,-0.4551,-0.4501,-0.4499,-0.4523,-0.4525,-0.4528,-0.4598,0,0,0,0,0,0,-0.4784,-0.4776,-0.4784,-0.4735,-0.4724,-0.4714,-0.4663,-0.4652,-0.4639,-0.4632,-0.4587,-0.4578,-0.454,-0.4535,-0.453,-0.4548,-0.4498,-0.4521,-0.4524,-0.4527,-0.4594,-0.4602,-0.461,0,0,0,0,0,-0.4787,-0.4806,-0.4784,-0.4778,-0.4733,-0.4715,-0.4709,-0.4665,-0.4641,-0.4648,-0.4615,-0.4579,-0.455,-0.4535,-0.453,-0.4547,-0.452,-0.4523,-0.4527,-0.459,-0.4601,-0.461,0,0,0,0,0,0,-0.4858,-0.4799,-0.4774,-0.4779,-0.4752,-0.4702,-0.471,-0.4678,-0.4658,-0.4652,-0.4599,-0.4589,-0.4592,-0.4569,-0.4554,-0.4565,-0.453,-0.4532,-0.458,-0.4589,-0.4597,-0.4602,-0.4497,0,0,0,0,0,-0.4874,-0.4865,-0.4814,-0.4823,-0.4811,-0.4763,-0.4753,-0.4722,-0.4693,-0.4681,-0.4648,-0.4621,-0.4606,-0.4596,-0.4579,-0.4591,-0.4579,-0.46,-0.4608,-0.4615,-0.4618,-0.4622,-0.463,-0.454,-0.454,-0.454,0,0,-0.4908,-0.4874,-0.4871,-0.4836,-0.4812,-0.4803,-0.4754,-0.4747,-0.474,-0.468,-0.4675,-0.465,-0.4616,-0.462,-0.462,-0.4601,-0.464,-0.462,-0.4626,-0.4624,-0.4626,-0.4635,-0.4643,-0.4542,-0.4542,-0.4542,0,0,-0.4964,-0.4938,-0.4942,-0.4919,-0.4884,-0.4852,-0.4854,-0.4808,-0.4789,-0.4784,-0.4739,-0.473,-0.4705,-0.4683,-0.4668,-0.4718,-0.4684,-0.4714,-0.4756,-0.4761,-0.4768,-0.4774,-0.4791,-0.4798,-0.4717,-0.4717,-0.4717,0,-0.5009,-0.4994,-0.4949,-0.4944,-0.493,-0.4877,-0.4881,-0.4861,-0.4822,-0.4814,-0.4793,-0.4761,-0.4734,-0.4733,-0.4745,-0.4735,-0.4735,-0.4718,-0.4771,-0.4776,-0.4781,-0.4797,-0.4804,-0.4721,-0.4721,-0.472,-0.472,0,-0.5052,-0.5043,-0.5051,-0.5014,-0.5001,-0.5002,-0.4956,-0.4949,-0.492,-0.489,-0.4885,-0.4852,-0.4828,-0.4825,-0.4796,-0.482,-0.4809,-0.4781,-0.4743,-0.4794,-0.4808,-0.4814,-0.4727,-0.4725,-0.4724,-0.4723,0,0,-0.5149,-0.5089,-0.5092,-0.5075,-0.5033,-0.5025,-0.5023,-0.4999,-0.4994,-0.497,-0.4966,-0.4947,-0.4921,-0.4905,-0.4873,-0.4878,-0.4919,-0.4848,-0.4847,-0.4862,-0.4943,-0.4964,-0.4971,-0.4897,-0.4898,-0.4899,-0.4945,0,-0.5197,-0.519,-0.515,-0.5154,-0.5145,-0.5095,-0.5094,-0.5068,-0.5041,-0.5029,-0.5,-0.4987,-0.4953,-0.4943,-0.4945,-0.4914,-0.4934,-0.491,-0.4893,-0.4893,-0.4902,-0.4979,-0.5,-0.5046,-0.495,-0.4951,-0.4952,0,-0.5252,-0.5231,-0.5235,-0.5193,-0.5188,-0.5187,-0.5162,-0.5152,-0.5122,-0.5102,-0.5085,-0.505,-0.5046,-0.5012,-0.5006,-0.499,-0.4981,-0.4965,-0.4966,-0.4961,-0.4925,-0.4976,-0.5059,-0.5066,-0.496,-0.496,-0.4959,0,-0.5321,-0.5294,-0.5293,-0.528,-0.5232,-0.5233,-0.5212,-0.5181,-0.517,-0.5149,-0.5141,-0.512,-0.5108,-0.5093,-0.5053,-0.5033,-0.5051,-0.5014,-0.5034,-0.5035,-0.5039,-0.5039,-0.5121,-0.5036,-0.5036,-0.5035,-0.5035,0,-0.5378,-0.5383,-0.5324,-0.5323,-0.5326,-0.5281,-0.5285,-0.5261,-0.5233,-0.5227,-0.5183,-0.5179,-0.5127,-0.5117,-0.5086,-0.5085,-0.508,-0.5064,-0.5056,-0.5067,-0.5069,-0.506,-0.5055,-0.5037,-0.5037,-0.5036,-0.5036,0,-0.5456,-0.5417,-0.5412,-0.5367,-0.5356,-0.536,-0.5322,-0.532,-0.5291,-0.5284,-0.5279,-0.5234,-0.522,-0.5179,-0.5154,-0.5134,-0.5141,-0.5126,-0.5151,-0.5146,-0.5168,-0.5166,-0.5246,-0.5254,-0.5164,-0.5165,-0.5166,0,-0.5494,-0.5496,-0.5452,-0.5444,-0.5426,-0.5415,-0.5403,-0.5359,-0.5349,-0.5316,-0.5318,-0.53,-0.5283,-0.5262,-0.5227,-0.5208,-0.5192,-0.5221,-0.5188,-0.52,-0.5191,-0.5191,-0.5191,-0.5228,-0.5229,-0.523,-0.5231,0,-0.5566,-0.5547,-0.5532,-0.551,-0.5498,-0.5479,-0.5457,-0.5454,-0.5404,-0.5395,-0.538,-0.5367,-0.5342,-0.5325,-0.5301,-0.528,-0.5247,-0.5242,-0.5245,-0.5256,-0.5271,-0.5263,-0.517,-0.524,-0.5239,-0.5238,-0.5238,-0.5237,-0.5625,-0.5624,-0.5593,-0.5578,-0.5557,-0.5538,-0.5534,-0.5505,-0.5491,-0.5468,-0.5443,-0.543,-0.5401,-0.5365,-0.5348,-0.5338,-0.532,-0.5325,-0.5326,-0.5328,-0.5333,-0.5274,-0.5333,-0.5333,-0.5333,-0.5332,-0.5332,0,-0.5694,-0.5672,-0.5658,-0.5629,-0.5618,-0.5589,-0.5564,-0.5556,-0.5546,-0.5521,-0.5506,-0.5489,-0.5473,-0.5437,-0.5418,-0.5417,-0.5401,-0.5413,-0.5412,-0.5408,-0.535,-0.5349,-0.5426,-0.5426,-0.5426,-0.5426,-0.5426,-0.5426,-0.5728,-0.5726,-0.5704,-0.5691,-0.5669,-0.5656,-0.5645,-0.5627,-0.5608,-0.5591,-0.5577,-0.5554,-0.5525,-0.5504,-0.5487,-0.5477,-0.5472,-0.5489,-0.5474,-0.5421,-0.5412,-0.5403,-0.5401,-0.5488,-0.5488,-0.5532,-0.5532,-0.5533]},{"header":{"parameterUnit":"m.s-1","parameterCategory":1,"la1":30.2991,"la2":30.254,"lo1":-89.0895,"lo2":-89.0444,"dy":0.0017,"dx":0.0017,"nx":28,"ny":28,"refTime":"2023-10-20T09:00:00:Z","depth":0,"parameterNumber":3,"parameterNumberName":"V-component_of_WINDS"},"data":[0,0,0,0,0,0,0,0,0,0,0,0,0,0,0,0,0,0,0,0,0,0,0,0,0,0,0,0,0,0,0,0,0,0,0,0,0,0,0,0,0,0,0,0,0,0,0,0,0,0,0,0,0,0,0,0,0,0,2.6741,2.6741,0,2.6752,2.6752,2.6752,2.6807,2.6808,2.681,2.6811,2.6817,2.6816,2.6815,0,0,0,0,0,0,0,0,0,0,0,0,0,2.6762,2.6762,2.6741,2.6741,2.6741,2.6752,2.6752,2.6752,2.6807,2.6808,2.681,2.6811,2.6818,2.6816,2.6815,0,0,0,0,0,0,0,0,0,0,0,0,0,2.6761,2.6761,2.6741,2.6769,2.6772,2.6752,2.6752,2.6752,2.6806,2.6808,2.681,2.6812,2.6818,2.6817,2.6815,2.6766,0,0,2.681,2.681,0,0,0,0,0,0,0,0,2.6761,2.676,2.6765,2.6767,2.677,2.678,2.6762,2.6757,2.6806,2.6793,2.6811,2.6813,2.6803,2.6803,2.6801,2.6767,2.6767,2.681,2.6809,2.6809,2.6808,0,0,0,0,0,0,0,2.6761,2.676,2.6745,2.6765,2.6768,2.6781,2.6783,2.6761,2.6787,2.6794,2.6798,2.6799,2.6805,2.6802,2.6801,2.6767,2.681,2.6809,2.6808,2.6807,2.6695,2.6693,0,0,0,0,0,0,2.6758,2.676,2.6745,2.6745,2.6771,2.6779,2.6781,2.6775,2.6787,2.6791,2.6798,2.6802,2.6804,2.6803,2.6801,2.6746,2.6809,2.6807,2.6806,2.6697,2.6694,2.6692,0,0,0,0,0,0,2.6758,2.6756,2.6744,2.6754,2.6753,2.6776,2.6769,2.6774,2.6771,2.679,2.6794,2.679,2.6805,2.6804,2.6775,2.6747,2.6806,2.6805,2.6699,2.6696,2.6693,2.6634,0,0,0,0,0,0,2.6758,2.6756,2.6738,2.6753,2.6752,2.6719,2.6767,2.6773,2.6769,2.6775,2.6784,2.6787,2.6807,2.6777,2.6774,2.6746,2.6804,2.6702,2.6698,2.6694,2.6639,2.663,2.6622,0,0,0,0,0,2.6759,2.6719,2.6737,2.6735,2.6731,2.6717,2.6716,2.6741,2.6767,2.6749,2.6761,2.6787,2.6751,2.6774,2.677,2.6742,2.6704,2.6699,2.6695,2.6643,2.6631,2.6622,0,0,0,0,0,0,2.6698,2.6722,2.6741,2.6706,2.6709,2.6726,2.6704,2.6728,2.6723,2.6728,2.6757,2.6758,2.6726,2.6731,2.6756,2.6696,2.6732,2.6726,2.6694,2.6683,2.6675,2.6674,2.6802,0,0,0,0,0,2.6681,2.6669,2.669,2.6656,2.6657,2.668,2.6675,2.6694,2.6698,2.6699,2.6709,2.671,2.67,2.6692,2.6683,2.664,2.6643,2.6619,2.661,2.6603,2.6598,2.6577,2.6566,2.6677,2.6677,2.6677,0,0,2.6645,2.6656,2.6646,2.6645,2.6649,2.6635,2.6681,2.6664,2.6653,2.6696,2.667,2.6678,2.6681,2.6646,2.6631,2.6649,2.6568,2.6597,2.6591,2.659,2.6571,2.656,2.6551,2.6674,2.6675,2.6675,0,0,2.6572,2.6579,2.6553,2.6558,2.6565,2.6581,2.6575,2.6589,2.6596,2.6571,2.6603,2.6591,2.6571,2.6573,2.6571,2.6501,2.6525,2.6497,2.6452,2.6431,2.6422,2.6414,2.639,2.638,2.6492,2.6491,2.6491,0,2.6525,2.6507,2.6536,2.6517,2.6516,2.6556,2.6529,2.6531,2.6535,2.6532,2.6553,2.6531,2.6536,2.6502,2.6486,2.6483,2.6476,2.6496,2.6421,2.6414,2.6407,2.6384,2.6374,2.6488,2.6488,2.6489,2.6489,0,2.6449,2.6436,2.6413,2.6418,2.6414,2.6391,2.6416,2.6408,2.6428,2.6441,2.6416,2.6424,2.6418,2.6411,2.6429,2.638,2.6392,2.6416,2.6453,2.6393,2.6371,2.6363,2.6483,2.6484,2.6485,2.6486,0,0,2.6337,2.636,2.6351,2.6355,2.6367,2.6356,2.6335,2.6332,2.6324,2.6325,2.6308,2.6292,2.6316,2.6314,2.6333,2.6314,2.6259,2.6342,2.6342,2.6326,2.6206,2.6187,2.6176,2.6275,2.6274,2.6272,2.6206,0,2.6268,2.6235,2.6261,2.6223,2.6211,2.625,2.6232,2.6237,2.6249,2.624,2.6253,2.6242,2.6274,2.6273,2.6257,2.6269,2.6235,2.6274,2.6259,2.6258,2.6257,2.6165,2.6145,2.6082,2.6198,2.6196,2.6195,0,2.6182,2.6182,2.6143,2.616,2.6155,2.6139,2.6138,2.6129,2.6136,2.6146,2.6145,2.6169,2.6149,2.6185,2.6158,2.6184,2.618,2.6185,2.6183,2.6182,2.6223,2.6162,2.6062,2.6052,2.6182,2.6183,2.6184,0,2.6104,2.6094,2.607,2.6072,2.609,2.6078,2.6084,2.6093,2.609,2.6088,2.6086,2.6082,2.608,2.6076,2.6098,2.6122,2.6067,2.6106,2.6075,2.6074,2.6061,2.6062,2.5959,2.6058,2.6058,2.6058,2.6059,0,2.6024,2.5999,2.6036,2.6021,2.5994,2.6025,2.5997,2.6007,2.6015,2.6002,2.6035,2.6022,2.6052,2.6042,2.6059,2.6034,2.6033,2.604,2.6045,2.6037,2.6036,2.6034,2.6039,2.6056,2.6056,2.6057,2.6057,0,2.5932,2.5957,2.5933,2.5953,2.5958,2.5937,2.5954,2.594,2.5956,2.5939,2.5937,2.596,2.5951,2.5973,2.5965,2.5977,2.5942,2.5953,2.594,2.5943,2.5911,2.5914,2.5804,2.5791,2.5898,2.5897,2.5896,0,2.588,2.5862,2.588,2.5875,2.5881,2.5872,2.5869,2.5899,2.5894,2.5901,2.5887,2.588,2.5877,2.5859,2.5875,2.5869,2.5881,2.5843,2.588,2.5874,2.5881,2.5882,2.588,2.5835,2.5834,2.5832,2.5832,0,2.5783,2.5797,2.5792,2.5793,2.5789,2.579,2.5793,2.5787,2.5818,2.5811,2.5803,2.58,2.5794,2.5787,2.5786,2.5792,2.5816,2.582,2.5813,2.5804,2.5798,2.5802,2.5919,2.5822,2.5823,2.5824,2.5824,2.5825,2.571,2.5696,2.5708,2.5702,2.5708,2.5711,2.57,2.5715,2.5709,2.5708,2.5725,2.5713,2.5721,2.5722,2.5726,2.5716,2.5733,2.5722,2.572,2.5717,2.5712,2.58,2.5716,2.5716,2.5716,2.5717,2.5717,0,2.5616,2.5626,2.562,2.5625,2.5621,2.5647,2.5652,2.5646,2.5636,2.5642,2.5639,2.5629,2.5623,2.5639,2.5635,2.5624,2.5636,2.5622,2.5623,2.5624,2.5696,2.5703,2.5613,2.5613,2.5613,2.5613,2.5613,2.5613,2.5566,2.5545,2.556,2.5542,2.5552,2.5542,2.5542,2.5545,2.555,2.5539,2.5535,2.5546,2.5556,2.5554,2.5549,2.5554,2.5551,2.5533,2.5542,2.5609,2.5619,2.5629,2.5635,2.5532,2.5532,2.5471,2.547,2.547]}]]